Location: *
(48.8667°N, 2.3331°E)
Time: 03:18:03
(UTC+00:00)

ASTEX 1 - Pass Details

Date: 09 April 2020
Orbit: 720 x 743 km, 92.7° (Epoch: 26 May)

Event Time Altitude Azimuth Distance (km) Brightness Sun altitude
Exits shadow 21:49:59 62° 37° (NE) 835 3.6 -27.1°
Drops below altitude 10° 21:54:19 10° 359° (N) 2,250 6.6 -27.5°
Sets 21:56:38 0° 357° (N) 3,173 7.6 -27.7°
